Theta_e
316 319 319 318 325 321 328 330 332 332 335 343 343 344 344 343 346 336 347 349 344 345 341 337 333 333 331 330 329 328 330 335 341 340 332 325 333 336 334 334 335 331 328 329 328 333 334 335 338
320 319 318 314 324 326 325 324 332 330 336 328 343 344 345 344 345 351 350 348 344 344 342 337 333 333 332 332 330 327 328 331 331 330 327 331 336 337 336 336 336 332 325 325 328 334 335 335 338
318 320 315 318 318 326 326 323 327 325 323 326 338 343 344 346 345 350 351 348 346 344 342 338 333 334 333 332 332 328 328 331 330 329 330 334 336 336 335 336 337 330 325 325 326 332 332 333 336
318 315 313 318 322 321 324 322 323 324 325 325 338 342 342 342 345 350 349 348 346 345 343 339 334 334 334 333 333 331 328 330 327 327 330 333 334 335 334 337 336 331 326 326 326 327 331 334 338
316 311 317 318 320 320 321 322 322 324 324 325 337 339 345 340 350 352 349 347 346 346 344 340 335 334 335 333 333 333 329 329 328 326 327 330 332 335 338 337 329 327 327 328 327 328 330 332 337
314 311 317 319 319 320 320 320 322 324 323 327 337 345 343 351 352 353 350 349 347 346 344 341 337 334 335 335 333 333 333 330 330 330 332 333 333 338 338 331 326 323 326 329 328 328 331 334 336
314 313 316 317 321 321 320 319 321 322 329 331 342 346 341 353 353 352 351 351 349 349 347 344 343 338 336 336 336 333 333 333 331 331 332 336 338 340 337 330 328 324 324 328 329 328 328 329 331
311 313 316 315 318 320 320 321 321 324 330 329 332 351 349 350 352 350 350 350 350 349 349 348 348 345 340 337 337 335 333 334 334 333 333 334 336 337 336 332 330 327 324 325 326 328 328 327 327
310 314 315 317 317 320 320 322 323 325 327 326 339 345 350 352 352 351 351 351 351 351 352 352 354 355 347 343 339 338 335 334 335 335 334 333 333 333 334 332 330 330 327 324 323 323 324 325 325
313 313 314 314 316 319 321 322 324 323 323 325 345 347 348 350 351 351 350 350 350 350 351 351 352 351 350 346 344 341 340 335 334 336 336 335 335 333 333 332 330 330 330 327 324 322 322 322 321
310 313 313 315 316 317 319 318 321 322 325 327 343 348 346 347 347 348 350 350 350 350 349 351 348 348 346 344 344 342 343 339 335 336 337 338 336 335 334 333 331 329 330 329 329 328 325 324 323
314 311 313 315 316 318 318 320 324 324 323 332 333 345 346 346 346 345 345 347 349 349 350 349 348 348 348 346 344 343 343 343 340 337 337 338 338 336 334 332 331 330 328 329 333 335 335 330 325
311 311 311 314 314 313 315 319 321 325 324 328 334 343 345 345 345 344 344 345 347 347 348 350 347 348 352 348 345 343 343 344 343 341 339 339 339 336 333 331 330 330 329 333 338 340 340 337 333
308 309 312 311 312 312 314 314 317 322 322 327 335 337 340 339 342 344 343 343 345 345 346 346 346 345 346 347 344 343 343 342 342 341 339 339 337 336 333 330 328 330 332 338 340 341 341 342 341
306 308 309 311 310 312 312 316 316 322 322 323 334 336 337 337 337 339 344 344 345 345 344 344 342 342 342 341 341 339 339 340 339 338 338 338 337 334 332 329 328 336 340 341 341 341 342 345 343
306 308 307 307 308 310 314 314 321 319 322 323 325 334 336 334 335 336 336 342 343 345 346 346 343 342 340 337 336 337 335 336 335 334 333 332 332 329 327 327 327 331 340 342 343 342 342 346 345
305 306 307 310 307 309 313 313 314 319 321 322 323 326 330 329 331 338 334 334 340 343 344 345 344 342 338 337 335 335 332 335 336 333 331 330 330 329 329 330 328 330 337 340 345 343 344 346 346
306 307 307 309 309 308 314 316 320 320 320 322 321 321 323 324 325 325 328 334 337 340 342 345 344 343 342 342 341 340 336 341 341 339 338 334 334 333 333 334 335 334 333 337 347 347 347 347 344
306 307 308 308 310 311 311 316 317 318 322 321 321 321 321 323 323 325 332 337 338 338 338 343 343 344 343 344 344 344 345 344 343 344 345 343 340 340 341 343 342 342 341 337 347 347 346 344 343
308 307 308 309 308 313 312 315 316 319 321 321 321 321 321 322 323 324 325 338 340 337 337 338 343 341 342 342 344 344 345 348 350 348 348 348 346 345 344 344 345 345 345 343 343 346 345 343 342
308 308 308 309 315 320 316 316 319 321 321 321 320 319 320 321 322 322 324 332 338 339 339 341 339 341 342 343 343 344 347 348 349 349 349 349 351 351 349 348 348 347 346 345 345 345 344 342 342
309 308 310 320 318 317 320 314 319 319 321 321 321 319 320 321 321 320 323 326 334 334 334 340 342 341 340 342 344 344 342 344 346 347 348 348 348 347 349 349 347 345 347 346 345 344 344 343 341
308 309 309 314 318 320 323 323 320 320 323 319 319 318 317 319 321 321 321 326 327 329 329 328 336 339 339 339 339 341 338 341 344 344 344 348 347 349 348 349 347 346 346 345 344 344 342 343 340
309 308 309 309 312 313 316 320 315 318 318 318 316 315 316 316 319 321 322 324 325 327 329 330 336 337 337 336 336 336 336 337 338 343 345 345 345 344 341 344 345 344 345 342 343 343 342 341 340
308 309 308 309 311 313 315 319 315 314 314 315 314 314 314 315 316 319 320 320 320 323 326 330 335 334 334 335 335 336 336 340 343 342 341 341 340 340 341 341 342 342 340 342 344 342 341 341 339
308 306 307 312 315 316 316 318 315 316 318 317 320 319 313 315 315 319 319 319 321 322 323 330 333 334 336 338 339 340 340 339 337 332 330 329 327 328 331 334 336 338 339 340 342 341 341 340 339
307 309 306 312 312 312 316 314 313 322 324 324 321 314 315 317 317 325 331 331 331 330 332 332 334 335 335 334 332 330 330 328 324 323 322 321 320 320 320 321 322 326 331 333 334 334 333 332 332
308 308 310 309 315 314 315 320 317 326 325 324 318 317 324 333 332 328 327 326 325 326 326 328 328 325 324 323 321 319 319 319 317 317 316 316 316 316 315 315 314 315 317 319 324 328 329 329 329
307 308 308 310 311 316 317 316 320 324 323 323 322 330 333 331 326 324 323 323 324 322 322 321 320 319 318 318 317 316 315 315 315 314 314 313 314 314 314 314 314 314 314 314 314 314 317 319 320
306 308 309 310 322 317 315 315 322 322 322 326 333 333 330 327 323 321 321 321 319 319 318 317 317 317 316 315 313 312 312 311 311 310 310 310 311 311 311 311 312 312 313 314 315 315 315 315 315
Wind_Speed
14 12 10 3 3 4 3 4 2 3 6 3 5 3 5 1 4 4 0 26 36 37 34 32 29 28 26 24 23 24 25 27 27 25 25 27 26 24 22 19 17 15 15 14 15 15 15 15 14
8 9 2 2 4 3 5 4 4 2 2 8 2 6 2 4 4 6 11 18 37 39 35 33 30 28 26 24 22 21 22 24 25 25 25 25 24 21 18 16 14 14 14 14 15 14 14 13 12
6 3 3 3 3 6 5 4 1 6 9 4 5 2 3 2 3 13 7 26 36 39 35 32 30 28 27 24 22 21 21 22 23 24 24 23 21 19 16 14 13 12 13 13 15 14 12 11 10
2 4 4 4 7 4 5 5 2 6 5 3 1 9 4 1 4 4 23 28 36 37 34 31 29 27 26 25 22 21 20 20 21 22 23 22 19 16 14 13 11 10 11 12 14 14 12 10 8
3 3 2 3 7 3 4 4 1 4 4 5 2 6 3 5 6 17 36 32 37 35 32 30 28 27 24 24 22 21 20 19 19 20 21 19 18 16 13 10 9 9 9 10 11 12 11 10 9
3 3 2 5 7 5 3 5 2 3 5 8 0 5 2 6 11 17 34 32 37 36 32 28 26 24 23 22 20 19 18 18 17 17 18 17 17 14 11 9 8 9 9 8 8 9 9 8 8
6 5 5 5 10 4 5 4 2 3 5 3 2 2 0 10 12 18 25 25 33 31 29 26 22 21 21 20 20 19 17 16 15 16 15 15 14 13 11 9 8 7 7 7 6 6 7 7 7
5 4 6 6 6 6 4 4 1 3 5 2 3 1 2 4 19 22 23 24 27 27 24 24 21 20 19 19 18 18 17 15 13 12 13 13 12 11 9 8 7 6 6 7 6 6 5 5 5
4 3 5 8 8 3 3 3 1 2 3 4 8 8 5 18 22 25 24 20 20 21 18 17 15 15 18 17 16 16 15 15 13 12 11 12 13 13 11 10 8 7 6 6 6 6 6 6 7
5 5 10 6 5 5 3 1 2 5 8 4 7 11 15 19 15 16 19 17 17 16 16 18 17 15 16 16 15 15 15 15 14 13 12 12 12 13 12 11 10 9 8 6 6 6 7 8 8
5 6 6 5 6 5 2 3 0 2 1 2 5 7 8 17 13 12 12 21 23 21 16 16 19 19 21 22 20 19 17 16 15 15 14 13 13 14 14 13 12 11 10 9 8 8 9 10 11
4 6 6 7 4 3 3 3 2 4 5 5 7 9 9 12 8 10 13 17 23 21 20 18 18 19 20 21 24 23 22 20 20 19 18 17 16 16 16 16 15 13 13 12 11 11 11 12 12
6 4 7 5 7 4 4 2 2 1 4 7 8 7 7 9 11 13 19 18 21 23 18 17 18 18 18 20 23 22 24 24 22 20 19 19 19 19 18 18 17 16 14 14 13 11 10 11 12
7 8 5 7 6 1 4 3 4 3 3 7 8 8 6 7 7 12 12 18 22 21 20 17 17 16 17 20 20 21 21 21 20 20 21 21 21 20 19 19 18 17 16 15 14 14 13 14 15
5 5 6 12 5 4 7 9 7 6 3 7 6 7 9 9 10 13 22 21 22 21 22 22 22 22 22 22 21 21 20 20 22 22 21 21 21 21 20 19 19 17 16 16 16 15 16 16 14
7 1 5 5 11 6 8 11 6 8 10 8 8 6 6 9 13 19 19 22 24 29 26 24 28 27 26 27 27 26 21 24 25 24 21 22 23 23 21 22 21 19 18 16 17 16 17 17 16
4 5 5 2 10 9 11 3 10 9 9 8 8 8 7 6 8 16 19 20 27 25 26 28 25 32 23 33 31 32 26 30 33 30 23 21 23 25 22 21 22 20 21 21 18 18 17 17 16
5 7 3 6 6 11 6 4 1 3 8 11 9 8 8 8 11 12 12 17 23 27 23 25 32 29 31 28 28 33 30 31 28 28 19 18 20 24 18 19 23 21 22 23 20 20 18 18 17
6 9 8 6 5 7 9 6 9 9 6 8 8 8 8 9 9 14 7 11 13 19 25 30 27 25 25 23 28 30 21 25 24 24 17 18 20 20 19 21 22 21 22 25 21 17 18 19 19
4 8 7 3 5 3 5 6 9 9 6 9 12 10 10 5 7 10 10 15 16 17 24 29 33 32 34 33 32 18 19 17 18 19 20 18 20 21 26 26 25 25 27 28 24 20 20 20 19
3 6 6 6 4 1 3 3 4 5 5 5 6 7 5 9 9 8 9 19 19 22 25 32 36 35 32 31 26 22 13 13 11 15 14 15 17 17 20 20 18 22 24 31 28 24 25 22 19
11 8 4 8 5 4 2 4 4 6 8 7 9 8 10 10 7 8 9 16 19 28 25 30 33 29 28 24 27 23 18 15 10 10 11 13 15 17 21 21 19 22 21 24 25 24 26 26 22
5 11 5 3 5 4 1 2 6 1 4 8 11 13 12 15 14 15 13 24 32 29 24 26 29 30 25 21 19 22 20 11 11 13 15 15 14 14 17 16 16 17 23 27 27 24 25 28 25
12 9 5 5 3 1 5 5 5 3 7 4 6 11 14 13 16 16 26 32 30 29 25 20 23 25 26 22 14 15 7 9 14 17 19 21 17 14 16 17 18 21 23 30 32 27 27 26 23
6 15 3 2 1 5 6 4 8 6 7 7 9 12 11 8 11 15 15 14 23 24 24 22 17 10 12 11 11 10 8 10 9 8 8 13 14 13 16 17 15 16 28 24 25 26 27 29 28
11 7 5 7 5 5 6 4 5 4 5 7 11 14 8 9 9 13 13 9 9 15 14 11 12 10 10 10 9 8 9 12 14 15 17 17 16 17 15 15 14 15 15 15 17 19 24 24 23
10 8 6 7 2 5 4 5 5 5 6 9 9 1 7 5 5 6 9 13 13 14 15 19 24 24 23 27 27 26 27 26 22 21 19 18 18 18 18 17 18 17 17 14 14 13 12 13 14
13 9 2 3 4 4 1 2 4 8 12 13 8 5 6 12 12 11 11 18 22 27 29 33 36 37 35 33 31 28 27 22 20 18 17 16 15 17 18 18 18 17 17 16 14 10 6 6 7
9 9 4 6 3 5 4 4 5 6 10 11 3 7 10 13 14 12 12 21 27 30 32 30 38 40 35 32 28 23 19 20 19 16 14 14 13 15 16 16 16 15 15 14 13 12 11 9 8
6 8 6 5 1 3 4 4 2 6 8 3 9 9 8 14 15 15 13 20 24 26 25 35 36 36 31 25 24 21 20 18 18 16 14 12 13 13 14 14 15 16 16 15 14 12 11 11 12
Wind_Direction
308 325 322 22 56 61 269 255 281 281 1 314 277 224 230 227 168 213 7 158 165 165 166 165 161 156 151 146 143 144 150 153 154 153 152 149 147 144 142 138 134 131 131 130 129 126 121 120 120
313 339 12 72 110 118 261 261 196 300 302 300 237 313 256 244 95 99 120 164 165 166 168 166 164 159 154 150 147 144 148 151 152 153 153 150 147 146 145 141 137 133 134 134 134 131 126 125 126
327 359 85 123 141 178 206 213 62 323 303 327 330 153 265 337 67 153 159 164 168 166 170 168 166 164 158 154 151 147 149 150 152 151 152 151 149 149 146 143 138 137 138 139 141 141 137 137 135
335 15 37 117 228 244 197 196 304 329 299 150 241 285 308 147 160 195 160 163 168 167 170 170 169 169 163 159 155 150 150 153 154 154 154 154 151 150 147 144 142 143 143 145 147 150 149 148 146
70 53 119 165 247 200 255 268 315 319 283 276 166 270 245 48 109 144 160 162 170 169 170 172 173 172 170 164 159 154 151 155 157 158 156 157 154 152 151 151 149 151 152 153 153 157 159 160 162
68 102 118 195 249 164 207 234 344 293 286 303 130 317 301 59 121 149 160 161 171 170 171 174 174 175 174 170 164 160 157 157 162 165 162 162 158 155 156 157 156 158 164 162 162 163 165 169 176
134 114 198 187 233 263 178 195 190 250 281 275 236 222 297 49 110 137 146 154 163 168 169 171 173 175 178 178 171 169 166 163 164 171 171 169 168 165 164 164 163 166 177 176 178 176 179 182 191
116 111 171 208 193 250 185 175 78 216 272 356 3 311 356 110 113 122 132 141 150 162 168 170 171 176 180 181 177 176 174 171 169 174 179 184 183 184 179 179 174 179 188 196 198 205 210 210 216
138 114 199 203 176 222 181 128 268 303 302 38 18 15 69 114 117 114 111 116 127 147 156 168 153 164 177 180 179 180 180 179 176 181 187 196 200 198 197 194 194 194 205 208 213 225 232 239 242
156 180 200 193 185 209 202 117 18 37 4 22 77 39 63 90 102 113 123 128 126 139 150 170 161 160 170 175 178 181 184 187 188 193 198 204 214 214 211 208 210 212 216 222 231 243 254 259 261
173 199 173 204 200 240 242 2 317 38 3 323 130 110 74 79 81 95 127 138 145 152 158 169 172 174 174 179 183 183 191 195 198 204 206 214 220 224 224 222 221 224 229 232 239 250 258 265 272
169 204 166 234 187 204 266 329 47 182 188 123 125 135 110 87 79 96 98 126 148 161 167 172 180 181 179 183 188 188 193 199 205 209 212 216 223 225 227 231 232 236 239 244 249 257 266 269 272
193 180 193 196 213 202 301 191 115 49 169 117 123 127 121 116 113 109 124 137 148 152 171 182 185 187 186 187 191 196 200 207 210 213 216 219 224 229 231 232 234 241 245 249 253 262 274 279 276
190 177 191 207 213 227 172 218 172 253 183 142 133 151 144 137 138 137 138 143 153 155 162 180 196 201 200 201 202 208 213 216 216 218 222 224 227 231 232 234 236 242 244 254 267 278 285 286 285
119 109 216 232 171 218 150 258 203 179 189 157 157 148 158 181 179 179 168 158 162 161 163 176 192 200 208 211 214 212 220 225 223 226 226 230 234 234 237 238 239 241 252 260 265 275 282 286 284
157 109 162 243 187 216 160 242 172 178 155 165 172 181 176 180 203 212 205 192 176 169 173 180 195 200 208 219 218 214 218 227 229 226 228 232 236 235 233 241 239 243 252 262 265 270 277 278 276
214 165 161 224 205 186 180 131 180 173 157 181 179 184 200 230 235 217 202 210 200 191 184 184 198 198 211 225 222 223 211 226 228 219 215 228 241 244 239 241 246 245 254 261 271 268 270 273 270
152 118 142 177 203 202 153 168 98 176 171 192 202 194 205 225 241 229 220 233 209 205 204 209 205 207 205 223 223 230 219 226 243 235 223 230 239 245 249 253 256 254 256 260 261 257 261 260 264
142 137 137 215 220 140 209 166 220 239 183 182 208 212 207 221 244 255 200 221 217 217 218 211 210 207 211 225 229 230 224 230 244 244 242 245 246 247 247 250 256 256 256 260 257 255 256 259 264
138 148 178 203 225 132 158 199 226 219 209 190 197 214 217 215 224 249 206 199 210 217 225 230 229 234 235 238 232 226 231 235 239 244 251 250 254 258 258 254 254 257 259 255 253 257 257 264 263
151 140 157 168 122 70 112 288 202 236 223 219 216 207 213 205 214 231 228 217 200 214 224 228 234 238 236 236 229 225 219 224 228 241 255 267 259 264 256 255 264 269 267 262 255 260 262 261 269
182 195 149 130 105 171 70 258 246 210 214 224 229 199 208 211 218 218 224 246 225 228 226 229 229 234 232 224 217 218 228 235 242 259 266 273 269 260 247 245 253 249 257 265 264 265 268 274 255
183 168 178 109 97 114 334 83 277 135 233 230 232 233 216 209 206 209 216 229 239 237 231 236 239 240 234 228 239 239 242 264 285 300 299 297 292 275 272 271 270 275 272 272 273 261 267 268 271
152 128 53 48 83 296 213 140 289 215 216 248 224 223 222 206 209 212 213 220 228 236 241 237 239 239 239 240 230 228 245 295 316 317 298 295 303 307 301 303 290 279 273 273 273 270 269 264 263
134 142 102 50 205 210 181 116 238 252 263 236 269 261 229 211 205 209 208 214 221 226 231 236 234 221 227 223 232 253 275 311 323 346 354 353 351 338 323 316 292 278 278 271 270 270 277 268 259
182 142 144 161 163 172 137 206 235 205 295 270 269 265 215 212 203 208 212 183 212 222 224 201 170 148 158 144 115 104 99 81 70 62 53 49 43 38 25 7 340 316 300 293 269 263 263 264 265
194 194 164 106 54 93 200 279 316 322 319 309 308 281 176 179 133 114 85 76 107 122 123 133 121 107 103 100 96 92 86 79 72 60 55 49 38 34 33 31 25 16 9 349 330 312 287 283 271
181 157 114 6 124 134 299 248 229 339 315 317 329 58 100 107 100 92 89 96 92 93 98 104 103 96 93 92 86 80 83 88 83 70 56 46 37 34 29 26 25 21 18 15 7 6 347 317 289
139 172 69 112 95 140 132 262 218 270 286 301 111 76 107 104 101 95 92 94 98 99 99 98 98 102 97 91 85 85 88 77 73 68 55 42 29 22 16 10 5 7 5 3 357 351 340 328 323
146 163 123 117 158 70 123 283 288 293 294 110 108 89 96 110 111 104 92 96 99 98 102 107 100 90 91 98 106 90 80 73 69 65 58 45 37 27 24 18 11 8 3 357 351 344 333 319 307